| time (UTC) | temp C | wind direction | speed KPH | gust KPH | rain 1hr cm | rain 24hr cm | rain mn cm | humidity % | barometer mb |
| 20260506171250 | 17 | 129 | 0.0 | 1.6 | 0.00 | 0.00 | 0.00 | 92 | 1015.4 |
| 20260506170301 | 17 | 129 | 0.0 | 1.6 | 0.00 | 0.00 | 0.00 | 92 | 1015.5 |
| 20260506165759 | 17 | 129 | 0.0 | 4.8 | 0.00 | 0.00 | 0.00 | 92 | 1015.5 |
| 20260506165259 | 17 | 129 | 0.0 | 4.8 | 0.00 | 0.00 | 0.00 | 92 | 1015.7 |
| 20260506165017 | 17 | 129 | 1.6 | 4.8 | 0.00 | 0.00 | 0.00 | 92 | 1015.7 |
| 20260506164257 | 17 | 129 | 1.6 | 4.8 | 0.00 | 0.00 | 0.00 | 92 | 1015.8 |
| 20260506163754 | 17 | 129 | 0.0 | 3.2 | 0.00 | 0.00 | 0.00 | 92 | 1015.9 |
| 20260506163254 | 17 | 129 | 0.0 | 3.2 | 0.00 | 0.00 | 0.00 | 91 | 1016.0 |
| 20260506162753 | 17 | 129 | 0.0 | 3.2 | 0.00 | 0.00 | 0.00 | 91 | 1015.9 |
| 20260506162736 | 17 | 130 | 0.0 | 3.2 | 0.00 | 0.00 | 0.00 | 92 | 1015.9 |
| 20260506161749 | 17 | 130 | 0.0 | 1.6 | 0.00 | 0.00 | 0.00 | 92 | 1015.9 |
| 20260506161247 | 17 | 129 | 0.0 | 1.6 | 0.00 | 0.00 | 0.00 | 92 | 1015.8 |
| 20260506160800 | 17 | 129 | 0.0 | 1.6 | 0.00 | 0.00 | 0.00 | 91 | 1015.7 |
| 20260506160235 | 17 | 130 | 0.0 | 0.0 | 0.00 | 0.00 | 0.00 | 91 | 1015.8 |
| 20260506155654 | 17 | 130 | 0.0 | 0.0 | 0.00 | 0.00 | 0.00 | 91 | 1015.8 |
| 20260506155126 | 17 | 130 | 0.0 | 0.0 | 0.00 | 0.00 | 0.00 | 91 | 1015.9 |
| 20260506154558 | 18 | 129 | 0.0 | 0.0 | 0.00 | 0.00 | 0.00 | 91 | 1015.8 |
| 20260506154033 | 18 | 129 | 0.0 | 0.0 | 0.00 | 0.00 | 0.00 | 91 | 1015.8 |
| 20260506153506 | 18 | 129 | 0.0 | 0.0 | 0.00 | 0.00 | 0.00 | 91 | 1015.8 |
| 20260506152940 | 18 | 129 | 0.0 | 0.0 | 0.00 | 0.00 | 0.00 | 91 | 1015.8 |
| 20260506152412 | 18 | 129 | 0.0 | 3.2 | 0.00 | 0.00 | 0.00 | 91 | 1016.0 |
| 20260506151846 | 18 | 129 | 0.0 | 3.2 | 0.00 | 0.00 | 0.00 | 91 | 1016.0 |
| 20260506151321 | 18 | 129 | 0.0 | 3.2 | 0.00 | 0.00 | 0.00 | 91 | 1016.0 |
| 20260506150757 | 18 | 129 | 0.0 | 0.0 | 0.00 | 0.00 | 0.00 | 91 | 1016.1 |
| 20260506150230 | 18 | 130 | 0.0 | 0.0 | 0.00 | 0.00 | 0.00 | 91 | 1016.2 |
| 20260506145705 | 18 | 129 | 0.0 | 0.0 | 0.00 | 0.00 | 0.00 | 91 | 1016.2 |
| 20260506145407 | 18 | 130 | 0.0 | 0.0 | 0.00 | 0.00 | 0.00 | 91 | 1016.2 |
| 20260506144613 | 18 | 130 | 0.0 | 0.0 | 0.00 | 0.00 | 0.00 | 91 | 1016.3 |
| 20260506144045 | 18 | 129 | 0.0 | 0.0 | 0.00 | 0.00 | 0.00 | 91 | 1016.3 |
| 20260506143521 | 18 | 130 | 0.0 | 0.0 | 0.00 | 0.00 | 0.00 | 91 | 1016.2 |
| 20260506142956 | 18 | 130 | 0.0 | 0.0 | 0.00 | 0.00 | 0.00 | 91 | 1016.5 |
| 20260506142653 | 18 | 129 | 0.0 | 1.6 | 0.00 | 0.00 | 0.00 | 91 | 1016.6 |
| 20260506141918 | 18 | 129 | 0.0 | 1.6 | 0.00 | 0.00 | 0.00 | 91 | 1016.6 |
| 20260506141637 | 18 | 129 | 0.0 | 3.2 | 0.00 | 0.00 | 0.00 | 90 | 1016.7 |
| 20260506140854 | 18 | 129 | 0.0 | 3.2 | 0.00 | 0.00 | 0.00 | 90 | 1016.6 |
| 20260506140342 | 18 | 129 | 0.0 | 3.2 | 0.00 | 0.00 | 0.00 | 90 | 1016.6 |
| 20260506135840 | 18 | 130 | 0.0 | 3.2 | 0.00 | 0.00 | 0.00 | 90 | 1016.6 |
| 20260506135340 | 18 | 130 | 0.0 | 3.2 | 0.00 | 0.00 | 0.00 | 89 | 1016.6 |
| 20260506134839 | 18 | 130 | 0.0 | 3.2 | 0.00 | 0.00 | 0.00 | 89 | 1016.5 |
| 20260506134336 | 18 | 130 | 0.0 | 3.2 | 0.00 | 0.00 | 0.00 | 89 | 1016.6 |
| 20260506133834 | 18 | 130 | 0.0 | 0.0 | 0.00 | 0.00 | 0.00 | 89 | 1016.6 |
| 20260506133336 | 18 | 130 | 0.0 | 0.0 | 0.00 | 0.00 | 0.00 | 89 | 1016.7 |
| 20260506132832 | 18 | 130 | 0.0 | 0.0 | 0.00 | 0.00 | 0.00 | 89 | 1016.7 |
| 20260506132330 | 18 | 130 | 0.0 | 0.0 | 0.00 | 0.00 | 0.00 | 89 | 1016.7 |
| 20260506131828 | 18 | 130 | 0.0 | 0.0 | 0.00 | 0.00 | 0.00 | 89 | 1016.7 |
| 20260506131330 | 18 | 130 | 0.0 | 0.0 | 0.00 | 0.00 | 0.00 | 88 | 1016.8 |
| 20260506131047 | 18 | 130 | 0.0 | 0.0 | 0.00 | 0.00 | 0.00 | 88 | 1016.9 |
| 20260506130326 | 19 | 130 | 0.0 | 0.0 | 0.00 | 0.00 | 0.00 | 88 | 1016.9 |
| 20260506125825 | 19 | 130 | 0.0 | 0.0 | 0.00 | 0.00 | 0.00 | 88 | 1016.9 |
| 20260506125551 | 19 | 130 | 0.0 | 0.0 | 0.00 | 0.00 | 0.00 | 88 | 1016.9 |
| 20260506124800 | 19 | 130 | 0.0 | 0.0 | 0.00 | 0.00 | 0.00 | 88 | 1017.0 |
| 20260506124232 | 19 | 130 | 0.0 | 0.0 | 0.00 | 0.00 | 0.00 | 88 | 1017.0 |
| 20260506123705 | 19 | 130 | 0.0 | 1.6 | 0.00 | 0.00 | 0.00 | 88 | 1017.1 |
| 20260506123200 | 19 | 129 | 0.0 | 1.6 | 0.00 | 0.00 | 0.00 | 88 | 1017.2 |
| 20260506122650 | 19 | 130 | 0.0 | 3.2 | 0.00 | 0.00 | 0.00 | 88 | 1017.2 |
| 20260506122125 | 19 | 130 | 0.0 | 3.2 | 0.00 | 0.00 | 0.00 | 88 | 1016.9 |
| 20260506121615 | 19 | 130 | 0.0 | 1.6 | 0.00 | 0.00 | 0.00 | 88 | 1016.9 |
| 20260506121114 | 20 | 130 | 0.0 | 3.2 | 0.00 | 0.00 | 0.00 | 88 | 1017.0 |
| 20260506120549 | 20 | 130 | 0.0 | 3.2 | 0.00 | 0.00 | 0.00 | 88 | 1017.2 |
| 20260506120028 | 20 | 130 | 0.0 | 3.2 | 0.00 | 0.00 | 0.00 | 88 | 1017.2 |
| 20260506115458 | 20 | 129 | 1.6 | 3.2 | 0.00 | 0.00 | 0.00 | 88 | 1017.2 |
| 20260506114954 | 20 | 129 | 1.6 | 4.8 | 0.00 | 0.00 | 0.00 | 88 | 1017.2 |
| 20260506114453 | 20 | 129 | 1.6 | 4.8 | 0.00 | 0.00 | 0.00 | 89 | 1017.3 |
| 20260506114213 | 20 | 130 | 1.6 | 3.2 | 0.00 | 0.00 | 0.00 | 89 | 1017.4 |
| 20260506113721 | 20 | 130 | 1.6 | 3.2 | 0.00 | 0.00 | 0.00 | 88 | 1017.4 |
| 20260506113213 | 20 | 130 | 1.6 | 3.2 | 0.00 | 0.00 | 0.00 | 88 | 1017.5 |
| 20260506112447 | 20 | 130 | 1.6 | 3.2 | 0.00 | 0.00 | 0.00 | 88 | 1017.5 |
| 20260506112405 | 20 | 130 | 1.6 | 6.4 | 0.00 | 0.00 | 0.00 | 88 | 1017.5 |
| 20260506112033 | 20 | 129 | 1.6 | 3.2 | 0.00 | 0.00 | 0.00 | 88 | 1017.6 |
| 20260506110938 | 20 | 130 | 3.2 | 6.4 | 0.00 | 0.00 | 0.00 | 88 | 1017.4 |
| 20260506110435 | 20 | 130 | 3.2 | 6.4 | 0.00 | 0.00 | 0.00 | 89 | 1017.4 |
| 20260506105934 | 20 | 130 | 3.2 | 4.8 | 0.00 | 0.00 | 0.00 | 89 | 1017.4 |
| 20260506105658 | 20 | 130 | 1.6 | 6.4 | 0.00 | 0.00 | 0.00 | 89 | 1017.4 |
| 20260506104934 | 20 | 130 | 1.6 | 6.4 | 0.00 | 0.00 | 0.00 | 89 | 1017.5 |
| 20260506104406 | 20 | 130 | 3.2 | 6.4 | 0.00 | 0.00 | 0.00 | 89 | 1017.5 |
| 20260506103840 | 20 | 146 | 3.2 | 6.4 | 0.00 | 0.00 | 0.00 | 89 | 1017.5 |
| 20260506103534 | 20 | 124 | 1.6 | 4.8 | 0.00 | 0.00 | 0.00 | 89 | 1017.5 |
| 20260506102745 | 20 | 118 | 3.2 | 6.4 | 0.00 | 0.00 | 0.00 | 89 | 1017.6 |
| 20260506102216 | 20 | 118 | 3.2 | 8.0 | 0.00 | 0.00 | 0.00 | 88 | 1017.5 |
| 20260506101650 | 20 | 118 | 3.2 | 8.0 | 0.00 | 0.00 | 0.00 | 88 | 1017.5 |
| 20260506101133 | 20 | 118 | 1.6 | 4.8 | 0.00 | 0.00 | 0.00 | 88 | 1017.6 |
| 20260506100634 | 20 | 118 | 1.6 | 4.8 | 0.00 | 0.00 | 0.00 | 88 | 1017.6 |
| 20260506100129 | 20 | 118 | 0.0 | 4.8 | 0.00 | 0.00 | 0.00 | 88 | 1017.6 |
| 20260506095617 | 20 | 118 | 0.0 | 0.0 | 0.00 | 0.00 | 0.00 | 88 | 1017.6 |
| 20260506095059 | 20 | 118 | 0.0 | 0.0 | 0.00 | 0.00 | 0.00 | 88 | 1017.6 |
| 20260506094600 | 20 | 118 | 0.0 | 1.6 | 0.00 | 0.00 | 0.00 | 87 | 1017.5 |
| 20260506094247 | 20 | 118 | 0.0 | 1.6 | 0.00 | 0.00 | 0.00 | 87 | 1017.5 |
| 20260506093514 | 20 | 118 | 0.0 | 3.2 | 0.00 | 0.00 | 0.00 | 87 | 1017.4 |
| 20260506093013 | 20 | 118 | 1.6 | 4.8 | 0.00 | 0.00 | 0.00 | 86 | 1017.5 |
| 20260506092446 | 20 | 118 | 1.6 | 4.8 | 0.00 | 0.00 | 0.00 | 86 | 1017.4 |
| 20260506092209 | 20 | 118 | 0.0 | 3.2 | 0.00 | 0.00 | 0.00 | 86 | 1017.5 |
| 20260506091704 | 20 | 118 | 0.0 | 1.6 | 0.00 | 0.00 | 0.00 | 86 | 1017.5 |
| 20260506090941 | 20 | 118 | 0.0 | 1.6 | 0.00 | 0.00 | 0.00 | 86 | 1017.4 |
| 20260506090440 | 20 | 118 | 1.6 | 3.2 | 0.00 | 0.00 | 0.00 | 86 | 1017.3 |
| 20260506085940 | 20 | 118 | 1.6 | 4.8 | 0.00 | 0.00 | 0.00 | 86 | 1017.2 |
| 20260506085438 | 20 | 118 | 3.2 | 6.4 | 0.00 | 0.00 | 0.00 | 86 | 1017.1 |
| 20260506084936 | 20 | 118 | 3.2 | 11.3 | 0.00 | 0.00 | 0.00 | 86 | 1017.1 |
| 20260506084435 | 20 | 118 | 3.2 | 11.3 | 0.00 | 0.00 | 0.00 | 86 | 1017.0 |
| 20260506083938 | 20 | 118 | 3.2 | 11.3 | 0.00 | 0.00 | 0.00 | 86 | 1017.0 |
| 20260506083429 | 20 | 118 | 4.8 | 11.3 | 0.00 | 0.00 | 0.00 | 85 | 1016.9 |
| 20260506083147 | 20 | 114 | 3.2 | 8.0 | 0.00 | 0.00 | 0.00 | 85 | 1016.8 |
| 20260506082427 | 20 | 109 | 4.8 | 11.3 | 0.00 | 0.00 | 0.00 | 85 | 1016.7 |
| 20260506081928 | 21 | 109 | 4.8 | 11.3 | 0.00 | 0.00 | 0.00 | 85 | 1016.7 |
| 20260506081358 | 21 | 106 | 3.2 | 11.3 | 0.00 | 0.00 | 0.00 | 84 | 1016.6 |
| 20260506080840 | 21 | 116 | 3.2 | 8.0 | 0.00 | 0.00 | 0.00 | 84 | 1016.6 |
| 20260506080341 | 21 | 116 | 3.2 | 8.0 | 0.00 | 0.00 | 0.00 | 84 | 1016.5 |
| 20260506072730 | 21 | 114 | 4.8 | 14.5 | 0.00 | 0.00 | 0.00 | 82 | 1016.1 |
| 20260506072227 | 21 | 117 | 4.8 | 11.3 | 0.00 | 0.00 | 0.00 | 82 | 1016.1 |
| 20260506071727 | 21 | 129 | 4.8 | 14.5 | 0.00 | 0.00 | 0.00 | 82 | 1016.0 |
| 20260506071227 | 22 | 118 | 4.8 | 14.5 | 0.00 | 0.00 | 0.00 | 81 | 1015.9 |
| 20260506070726 | 22 | 119 | 4.8 | 11.3 | 0.00 | 0.00 | 0.00 | 81 | 1015.8 |
| 20260506070225 | 22 | 122 | 3.2 | 11.3 | 0.00 | 0.00 | 0.00 | 81 | 1015.8 |
| 20260506062119 | 23 | 115 | 6.4 | 12.9 | 0.00 | 0.00 | 0.00 | 78 | 1015.6 |
| 20260506061552 | 23 | 118 | 6.4 | 12.9 | 0.00 | 0.00 | 0.00 | 77 | 1015.6 |
| 20260506061250 | 23 | 114 | 6.4 | 16.1 | 0.00 | 0.00 | 0.00 | 77 | 1015.7 |
| 20260506060535 | 23 | 116 | 6.4 | 16.1 | 0.00 | 0.00 | 0.00 | 77 | 1015.7 |
| 20260506051001 | 24 | 133 | 6.4 | 14.5 | 0.00 | 0.00 | 0.00 | 74 | 1015.6 |
| 20260506050500 | 24 | 135 | 6.4 | 17.7 | 0.00 | 0.00 | 0.00 | 74 | 1015.6 |
| 20260506045001 | 25 | 122 | 8.0 | 19.3 | 0.00 | 0.00 | 0.00 | 74 | 1015.6 |
| 20260506044445 | 25 | 120 | 6.4 | 20.9 | 0.00 | 0.00 | 0.00 | 74 | 1015.6 |
| 20260506043946 | 25 | 108 | 6.4 | 14.5 | 0.00 | 0.00 | 0.00 | 74 | 1015.6 |
| 20260506043419 | 25 | 122 | 6.4 | 16.1 | 0.00 | 0.00 | 0.00 | 74 | 1015.6 |
| 20260506042920 | 25 | 117 | 6.4 | 16.1 | 0.00 | 0.00 | 0.00 | 73 | 1015.6 |
| 20260506042419 | 25 | 130 | 6.4 | 20.9 | 0.00 | 0.00 | 0.00 | 74 | 1015.6 |
| 20260506041915 | 25 | 109 | 8.0 | 20.9 | 0.00 | 0.00 | 0.00 | 73 | 1015.6 |
| 20260506041415 | 25 | 164 | 8.0 | 14.5 | 0.00 | 0.00 | 0.00 | 74 | 1015.6 |
| 20260506040928 | 24 | 119 | 8.0 | 17.7 | 0.00 | 0.00 | 0.00 | 75 | 1015.6 |
| 20260506040414 | 24 | 199 | 9.7 | 17.7 | 0.00 | 0.00 | 0.00 | 75 | 1015.7 |
| 20260506035911 | 24 | 123 | 9.7 | 17.7 | 0.00 | 0.00 | 0.00 | 75 | 1015.7 |
| 20260506035411 | 24 | 86 | 9.7 | 17.7 | 0.00 | 0.00 | 0.00 | 75 | 1015.8 |
| 20260506034907 | 24 | 130 | 9.7 | 17.7 | 0.00 | 0.00 | 0.00 | 73 | 1015.7 |
| 20260506034406 | 24 | 124 | 6.4 | 17.7 | 0.00 | 0.00 | 0.00 | 74 | 1015.8 |
| 20260506033904 | 25 | 122 | 4.8 | 12.9 | 0.00 | 0.00 | 0.00 | 73 | 1015.8 |
| 20260506033404 | 25 | 146 | 4.8 | 12.9 | 0.00 | 0.00 | 0.00 | 73 | 1015.8 |
| 20260506032900 | 25 | 118 | 4.8 | 12.9 | 0.00 | 0.00 | 0.00 | 73 | 1015.9 |
| 20260506032403 | 25 | 124 | 4.8 | 12.9 | 0.00 | 0.00 | 0.00 | 73 | 1015.9 |
| 20260506031854 | 25 | 118 | 6.4 | 12.9 | 0.00 | 0.00 | 0.00 | 73 | 1016.0 |
| 20260506031351 | 25 | 128 | 6.4 | 17.7 | 0.00 | 0.00 | 0.00 | 72 | 1016.0 |
| 20260506030850 | 25 | 137 | 6.4 | 17.7 | 0.00 | 0.00 | 0.00 | 71 | 1016.0 |
| 20260506030347 | 25 | 129 | 8.0 | 17.7 | 0.00 | 0.00 | 0.00 | 70 | 1016.0 |
| 20260506025846 | 25 | 161 | 6.4 | 17.7 | 0.00 | 0.00 | 0.00 | 69 | 1016.0 |
| 20260506025345 | 26 | 133 | 4.8 | 16.1 | 0.00 | 0.00 | 0.00 | 69 | 1016.0 |
| 20260506025102 | 26 | 112 | 4.8 | 14.5 | 0.00 | 0.00 | 0.00 | 69 | 1016.0 |
| 20260506024345 | 26 | 144 | 6.4 | 14.5 | 0.00 | 0.00 | 0.00 | 70 | 1016.0 |
| 20260506023835 | 26 | 141 | 8.0 | 19.3 | 0.00 | 0.00 | 0.00 | 70 | 1016.1 |
| 20260506023557 | 25 | 124 | 8.0 | 19.3 | 0.00 | 0.00 | 0.00 | 71 | 1016.1 |
| 20260506022834 | 25 | 132 | 6.4 | 14.5 | 0.00 | 0.00 | 0.00 | 73 | 1016.1 |
| 20260506022336 | 25 | 128 | 4.8 | 12.9 | 0.00 | 0.00 | 0.00 | 73 | 1016.2 |
| 20260506021807 | 24 | 137 | 8.0 | 17.7 | 0.00 | 0.00 | 0.00 | 73 | 1016.3 |
| 20260506021251 | 25 | 124 | 6.4 | 17.7 | 0.00 | 0.00 | 0.00 | 73 | 1016.5 |
| 20260506020754 | 25 | 123 | 4.8 | 12.9 | 0.00 | 0.00 | 0.00 | 73 | 1016.6 |
| 20260506020446 | 25 | 144 | 4.8 | 12.9 | 0.00 | 0.00 | 0.00 | 72 | 1016.7 |
| 20260506015659 | 25 | 108 | 4.8 | 14.5 | 0.00 | 0.00 | 0.00 | 73 | 1016.7 |
| 20260506015135 | 25 | 175 | 4.8 | 14.5 | 0.00 | 0.00 | 0.00 | 72 | 1016.8 |
| 20260506014607 | 25 | 125 | 6.4 | 14.5 | 0.00 | 0.00 | 0.00 | 71 | 1016.8 |
| 20260506014043 | 26 | 109 | 6.4 | 16.1 | 0.00 | 0.00 | 0.00 | 70 | 1016.9 |
| 20260506013523 | 26 | 126 | 4.8 | 16.1 | 0.00 | 0.00 | 0.00 | 70 | 1016.9 |
| 20260506013247 | 26 | 122 | 4.8 | 12.9 | 0.00 | 0.00 | 0.00 | 71 | 1016.8 |
| 20260506012456 | 25 | 119 | 4.8 | 11.3 | 0.00 | 0.00 | 0.00 | 71 | 1016.8 |
| 20260506011929 | 25 | 143 | 3.2 | 8.0 | 0.00 | 0.00 | 0.00 | 72 | 1017.0 |
| 20260506011401 | 25 | 129 | 3.2 | 22.5 | 0.00 | 0.00 | 0.00 | 72 | 1017.0 |
| 20260506011058 | 25 | 112 | 6.4 | 22.5 | 0.00 | 0.00 | 0.00 | 72 | 1017.1 |
| 20260506010307 | 25 | 126 | 8.0 | 22.5 | 0.00 | 0.00 | 0.00 | 72 | 1017.2 |
| 20260506005741 | 25 | 112 | 6.4 | 16.1 | 0.00 | 0.00 | 0.00 | 73 | 1017.2 |
| 20260506005446 | 25 | 99 | 4.8 | 14.5 | 0.00 | 0.00 | 0.00 | 72 | 1017.3 |
| 20260506004655 | 25 | 93 | 4.8 | 12.9 | 0.00 | 0.00 | 0.00 | 72 | 1017.5 |
| 20260506004129 | 25 | 112 | 4.8 | 16.1 | 0.00 | 0.00 | 0.00 | 72 | 1017.4 |
| 20260506003604 | 25 | 139 | 4.8 | 16.1 | 0.00 | 0.00 | 0.00 | 72 | 1017.4 |
| 20260506003040 | 25 | 108 | 6.4 | 16.1 | 0.00 | 0.00 | 0.00 | 71 | 1017.4 |
| 20260506002517 | 25 | 224 | 4.8 | 16.1 | 0.00 | 0.00 | 0.00 | 72 | 1017.5 |
| 20260506001951 | 25 | 114 | 4.8 | 14.5 | 0.00 | 0.00 | 0.00 | 74 | 1017.5 |
| 20260506001647 | 25 | 138 | 4.8 | 14.5 | 0.00 | 0.00 | 0.00 | 74 | 1017.5 |
| 20260506000859 | 25 | 139 | 6.4 | 14.5 | 0.00 | 0.00 | 0.00 | 74 | 1017.5 |
| 20260506000332 | 25 | 107 | 4.8 | 14.5 | 0.00 | 0.00 | 0.00 | 75 | 1017.5 |
| 20260505235821 | 25 | 196 | 4.8 | 12.9 | 0.00 | 0.00 | 0.00 | 77 | 1017.6 |
| 20260505235542 | 25 | 195 | 3.2 | 9.7 | 0.00 | 0.00 | 0.00 | 78 | 1017.6 |
| 20260505234822 | 24 | 113 | 4.8 | 12.9 | 0.00 | 0.00 | 0.00 | 79 | 1017.7 |
| 20260505234541 | 24 | 204 | 4.8 | 12.9 | 0.00 | 0.00 | 0.00 | 79 | 1017.7 |
| 20260505234039 | 24 | 190 | 4.8 | 12.9 | 0.00 | 0.00 | 0.00 | 80 | 1017.8 |
| 20260505233317 | 23 | 116 | 4.8 | 12.9 | 0.00 | 0.00 | 0.00 | 80 | 1017.8 |
| 20260505232814 | 23 | 130 | 4.8 | 12.9 | 0.00 | 0.00 | 0.00 | 80 | 1017.9 |
| 20260505232315 | 23 | 110 | 6.4 | 12.9 | 0.00 | 0.00 | 0.00 | 80 | 1017.9 |
| 20260505231812 | 23 | 126 | 4.8 | 12.9 | 0.00 | 0.00 | 0.00 | 81 | 1017.8 |
| 20260505231313 | 23 | 108 | 3.2 | 12.9 | 0.00 | 0.00 | 0.00 | 83 | 1017.9 |
| 20260505230813 | 23 | 152 | 3.2 | 12.9 | 0.00 | 0.00 | 0.00 | 84 | 1017.9 |
| 20260505230307 | 23 | 113 | 3.2 | 12.9 | 0.00 | 0.00 | 0.00 | 85 | 1017.9 |
| 20260505225804 | 22 | 203 | 3.2 | 9.7 | 0.00 | 0.00 | 0.00 | 87 | 1017.9 |
| 20260505225306 | 22 | 195 | 4.8 | 9.7 | 0.00 | 0.00 | 0.00 | 88 | 1017.9 |
| 20260505224805 | 22 | 191 | 4.8 | 9.7 | 0.00 | 0.00 | 0.00 | 89 | 1018.0 |
| 20260505224304 | 21 | 212 | 4.8 | 9.7 | 0.00 | 0.00 | 0.00 | 91 | 1017.9 |
| 20260505223817 | 21 | 204 | 4.8 | 8.0 | 0.00 | 0.00 | 0.00 | 92 | 1018.0 |
| 20260505223306 | 21 | 217 | 4.8 | 8.0 | 0.00 | 0.00 | 0.00 | 93 | 1018.0 |
| 20260505222803 | 21 | 233 | 3.2 | 8.0 | 0.00 | 0.00 | 0.00 | 93 | 1017.9 |
| 20260505222527 | 20 | 261 | 3.2 | 8.0 | 0.00 | 0.00 | 0.00 | 94 | 1017.9 |
| 20260505221805 | 20 | 180 | 3.2 | 8.0 | 0.00 | 0.00 | 0.00 | 94 | 1017.8 |
| 20260505221235 | 20 | 180 | 3.2 | 9.7 | 0.00 | 0.00 | 0.00 | 94 | 1017.8 |
| 20260505220713 | 20 | 228 | 3.2 | 8.0 | 0.00 | 0.00 | 0.00 | 94 | 1017.9 |
| 20260505220217 | 20 | 221 | 3.2 | 8.0 | 0.00 | 0.00 | 0.00 | 95 | 1017.9 |
| 20260505215645 | 20 | 238 | 1.6 | 8.0 | 0.00 | 0.00 | 0.00 | 94 | 1017.8 |
| 20260505215150 | 20 | 206 | 1.6 | 6.4 | 0.00 | 0.00 | 0.00 | 94 | 1017.8 |
| 20260505214637 | 19 | 206 | 3.2 | 8.0 | 0.00 | 0.00 | 0.00 | 95 | 1017.8 |
| 20260505214133 | 19 | 201 | 1.6 | 8.0 | 0.00 | 0.00 | 0.00 | 94 | 1017.8 |
| 20260505213633 | 19 | 212 | 1.6 | 6.4 | 0.00 | 0.00 | 0.00 | 94 | 1017.7 |
| 20260505213353 | 19 | 212 | 1.6 | 6.4 | 0.00 | 0.00 | 0.00 | 95 | 1017.7 |
| 20260505212854 | 19 | 249 | 1.6 | 6.4 | 0.00 | 0.00 | 0.00 | 94 | 1017.6 |
| 20260505212357 | 18 | 249 | 1.6 | 6.4 | 0.00 | 0.00 | 0.00 | 94 | 1017.6 |
| 20260505211626 | 18 | 249 | 1.6 | 6.4 | 0.00 | 0.00 | 0.00 | 94 | 1017.6 |
| 20260505211127 | 18 | 249 | 1.6 | 4.8 | 0.00 | 0.00 | 0.00 | 94 | 1017.5 |
| 20260505210626 | 18 | 249 | 1.6 | 4.8 | 0.00 | 0.00 | 0.00 | 94 | 1017.3 |
| 20260505210127 | 18 | 249 | 1.6 | 4.8 | 0.00 | 0.00 | 0.00 | 94 | 1017.3 |
| 20260505205845 | 18 | 249 | 0.0 | 0.0 | 0.00 | 0.00 | 0.00 | 94 | 1017.3 |
| 20260505205122 | 18 | 249 | 0.0 | 0.0 | 0.00 | 0.00 | 0.00 | 94 | 1017.1 |
| 20260505204622 | 18 | 249 | 0.0 | 0.0 | 0.00 | 0.00 | 0.00 | 94 | 1017.1 |
| 20260505204121 | 18 | 249 | 0.0 | 0.0 | 0.00 | 0.00 | 0.00 | 94 | 1017.1 |
| 20260505203623 | 18 | 250 | 0.0 | 0.0 | 0.00 | 0.00 | 0.00 | 94 | 1016.9 |
| 20260505203106 | 18 | 249 | 0.0 | 0.0 | 0.00 | 0.00 | 0.00 | 94 | 1016.9 |
| 20260505202606 | 18 | 249 | 0.0 | 0.0 | 0.00 | 0.00 | 0.00 | 94 | 1016.9 |
| 20260505202100 | 18 | 249 | 0.0 | 0.0 | 0.00 | 0.00 | 0.00 | 94 | 1016.9 |
| 20260505201828 | 18 | 249 | 0.0 | 0.0 | 0.00 | 0.00 | 0.00 | 94 | 1016.8 |
| 20260505201059 | 18 | 250 | 0.0 | 0.0 | 0.00 | 0.00 | 0.00 | 94 | 1016.9 |
| 20260505200557 | 18 | 249 | 0.0 | 0.0 | 0.00 | 0.00 | 0.00 | 94 | 1016.8 |
| 20260505200109 | 18 | 249 | 0.0 | 3.2 | 0.00 | 0.00 | 0.00 | 94 | 1016.8 |
| 20260505195557 | 18 | 249 | 0.0 | 3.2 | 0.00 | 0.00 | 0.00 | 94 | 1016.7 |
| 20260505195055 | 18 | 249 | 0.0 | 3.2 | 0.00 | 0.00 | 0.00 | 94 | 1016.7 |
| 20260505194555 | 19 | 250 | 1.6 | 4.8 | 0.00 | 0.00 | 0.00 | 94 | 1016.6 |
| 20260505194058 | 19 | 249 | 0.0 | 4.8 | 0.00 | 0.00 | 0.00 | 94 | 1016.6 |
| 20260505193549 | 19 | 249 | 0.0 | 4.8 | 0.00 | 0.00 | 0.00 | 94 | 1016.6 |
| 20260505193050 | 19 | 249 | 0.0 | 4.8 | 0.00 | 0.00 | 0.00 | 94 | 1016.6 |
| 20260505192545 | 19 | 249 | 0.0 | 4.8 | 0.00 | 0.00 | 0.00 | 94 | 1016.6 |
| 20260505192050 | 19 | 249 | 0.0 | 4.8 | 0.00 | 0.00 | 0.00 | 94 | 1016.7 |
| 20260505191522 | 19 | 255 | 0.0 | 3.2 | 0.00 | 0.03 | 0.00 | 94 | 1016.6 |
| 20260505191022 | 19 | 239 | 0.0 | 0.0 | 0.00 | 0.03 | 0.00 | 94 | 1016.6 |
| 20260505190520 | 19 | 239 | 0.0 | 1.6 | 0.00 | 0.03 | 0.00 | 94 | 1016.6 |
| 20260505190247 | 19 | 239 | 0.0 | 1.6 | 0.00 | 0.03 | 0.00 | 94 | 1016.6 |
| 20260505185515 | 19 | 239 | 0.0 | 1.6 | 0.00 | 0.03 | 0.00 | 94 | 1016.6 |
| 20260505185014 | 19 | 239 | 0.0 | 3.2 | 0.00 | 0.03 | 0.00 | 94 | 1016.5 |
| 20260505184511 | 19 | 239 | 0.0 | 3.2 | 0.00 | 0.03 | 0.00 | 94 | 1016.5 |
| 20260505184011 | 19 | 239 | 0.0 | 4.8 | 0.00 | 0.03 | 0.00 | 94 | 1016.2 |
| 20260505183507 | 19 | 239 | 0.0 | 4.8 | 0.00 | 0.03 | 0.00 | 94 | 1016.2 |
| 20260505183021 | 19 | 239 | 0.0 | 3.2 | 0.00 | 0.03 | 0.00 | 94 | 1016.2 |
| 20260505182959 | 19 | 239 | 0.0 | 0.0 | 0.00 | 0.03 | 0.00 | 94 | 1016.2 |
| 20260505182006 | 19 | 239 | 0.0 | 0.0 | 0.00 | 0.03 | 0.00 | 94 | 1016.2 |
| 20260505181517 | 19 | 239 | 0.0 | 0.0 | 0.00 | 0.03 | 0.00 | 94 | 1016.1 |
| 20260505180958 | 19 | 239 | 0.0 | 0.0 | 0.00 | 0.03 | 0.00 | 94 | 1016.0 |
| 20260505180455 | 19 | 239 | 0.0 | 0.0 | 0.00 | 0.03 | 0.00 | 94 | 1016.0 |
| 20260505175955 | 19 | 239 | 0.0 | 1.6 | 0.00 | 0.03 | 0.00 | 94 | 1016.0 |
| 20260505175455 | 19 | 239 | 0.0 | 1.6 | 0.00 | 0.03 | 0.00 | 94 | 1016.1 |
| 20260505174935 | 19 | 239 | 0.0 | 0.0 | 0.00 | 0.03 | 0.00 | 94 | 1016.0 |
| 20260505174434 | 19 | 239 | 0.0 | 0.0 | 0.00 | 0.03 | 0.00 | 94 | 1016.1 |
| 20260505173912 | 19 | 239 | 0.0 | 0.0 | 0.00 | 0.03 | 0.00 | 93 | 1016.2 |
| 20260505173635 | 19 | 239 | 0.0 | 0.0 | 0.00 | 0.03 | 0.00 | 93 | 1016.2 |
| 20260505172907 | 19 | 239 | 0.0 | 3.2 | 0.00 | 0.03 | 0.00 | 93 | 1016.2 |
| 20260505172405 | 19 | 239 | 0.0 | 3.2 | 0.00 | 0.03 | 0.00 | 93 | 1016.2 |
| 20260505171902 | 19 | 239 | 0.0 | 3.2 | 0.00 | 0.03 | 0.00 | 93 | 1016.2 |
| 20260505171400 | 19 | 239 | 0.0 | 3.2 | 0.00 | 0.03 | 0.00 | 93 | 1016.3 |